DW3835 Weather Reports


Display with metric or nautical units.
time (UTC)temp
F
wind
direction
speed
MPH
gust
MPH
rain 1hr
in
rain 24hr
in
rain mn
in
humidity
%
barometer
mb
20260902184933 72 173 1.0 4.0 0.00 0.00 0.00 70 1016.2
20260902183937 71 168 1.0 4.0 0.00 0.00 0.00 69 1016.3
20260902175437 67 137 0.0 4.0 0.00 0.00 0.00 74 1016.2
20260902174428 67 125 1.0 4.0 0.00 0.00 0.00 75 1016.1
20260902173442 67 188 1.0 4.0 0.00 0.00 0.00 73 1016.0
20260902171317 67 186 0.0 5.0 0.00 0.00 0.00 73 1015.8
20260902170252 66 232 0.0 0.0 0.00 0.00 0.00 73 1015.8
20260902165232 66 252 0.0 0.0 0.00 0.00 0.00 75 1015.8
20260902164236 66 199 0.0 0.0 0.00 0.00 0.00 75 1015.7
20260902160943 65 194 0.0 0.0 0.00 0.00 0.00 74 1015.6
20260902155948 64 109 0.0 0.0 0.00 0.00 0.00 76 1015.6
20260902154914 63 165 0.0 0.0 0.00 0.00 0.00 79 1015.7
20260902153938 61 122 0.0 0.0 0.00 0.00 0.00 81 1015.7
20260902151845 60 55 0.0 0.0 0.00 0.00 0.00 82 1015.8
20260902150854 60 55 0.0 0.0 0.00 0.00 0.00 82 1015.7
20260902145851 59 111 0.0 0.0 0.00 0.00 0.00 83 1015.6
20260902144904 59 144 0.0 0.0 0.00 0.00 0.00 83 1015.3
20260902141707 58 198 0.0 0.0 0.00 0.00 0.00 84 1015.0
20260902140635 58 196 0.0 0.0 0.00 0.00 0.00 84 1015.1
20260902134444 59 204 0.0 0.0 0.00 0.00 0.00 83 1015.0
20260902133447 59 210 0.0 0.0 0.00 0.00 0.00 83 1014.8
20260902132509 59 229 0.0 0.0 0.00 0.00 0.00 84 1014.7
20260902131449 59 175 0.0 0.0 0.00 0.00 0.00 84 1014.9
20260902130420 59 178 0.0 0.0 0.00 0.00 0.00 84 1014.8
20260902124300 58 134 0.0 0.0 0.00 0.00 0.00 86 1014.7
20260902123243 59 134 0.0 0.0 0.00 0.00 0.00 86 1014.6
20260902122212 59 59 0.0 0.0 0.00 0.00 0.00 86 1014.7
20260902121214 59 59 0.0 0.0 0.00 0.00 0.00 86 1014.7
20260902120231 59 59 0.0 0.0 0.00 0.00 0.00 86 1014.7
20260902115210 59 59 0.0 0.0 0.00 0.00 0.00 87 1014.7
20260902114136 59 59 0.0 0.0 0.00 0.00 0.00 86 1014.7
20260902113132 59 59 0.0 0.0 0.00 0.00 0.00 86 1014.7
20260902112155 59 59 0.0 0.0 0.00 0.00 0.00 86 1014.7
20260902111206 59 59 0.0 0.0 0.00 0.00 0.00 86 1014.7
20260902110152 59 59 0.0 0.0 0.00 0.00 0.00 86 1014.8
20260902105202 59 59 0.0 0.0 0.00 0.00 0.00 86 1015.0
20260902104127 59 59 0.0 0.0 0.00 0.00 0.00 86 1015.0
20260902103133 60 59 0.0 0.0 0.00 0.00 0.00 86 1015.0
20260902102114 60 59 0.0 0.0 0.00 0.00 0.00 85 1014.9
20260902095911 60 59 0.0 0.0 0.00 0.00 0.00 85 1014.9
20260902094841 60 59 0.0 0.0 0.00 0.00 0.00 86 1015.0
20260902093822 60 59 0.0 0.0 0.00 0.00 0.00 86 1015.0
20260902091659 60 183 0.0 0.0 0.00 0.00 0.00 86 1015.0
20260902084437 60 183 0.0 0.0 0.00 0.00 0.00 85 1015.1